Savoy, IL

7:24 AM CST on February 22, 2017 (GMT -0600)
Univ Of Illinois-Willard

Weather History for KCMI - February, 2013

Change the Weather History Date:

Tuesday, February 5, 2013

  Actual Average Record
Temperature  
Mean Temperature 32 °F 27 °F  
Max Temperature 41 °F 35 °F 55 °F (2008)
Min Temperature 22 °F 18 °F -8 °F (2007)
Degree Days  
Heating Degree Days 33 38  
Month to date heating degree days 207 193  
Since 1 July heating degree days 3391 3703  
Cooling Degree Days 0 0  
Month to date cooling degree days 0 0  
Year to date cooling degree days 0 0  
Moisture  
Dew Point 27 °F    
Average Humidity 84    
Maximum Humidity 92    
Minimum Humidity 75    
Precipitation  
Precipitation 0.00 in 0.07 in 2.50 in (2008)
Month to date precipitation 0.04 0.32  
Year to date precipitation 2.41 2.37  
Sea Level Pressure  
Sea Level Pressure 29.93 in    
Wind  
Wind Speed 10 mph (West)    
Max Wind Speed 23 mph    
Max Gust Speed 29 mph    
Visibility 6 miles    
Events      
T = Trace of Precipitation, MM = Missing Value Source: NWS Daily Summary

Daily Weather History Graph

Daily Weather History Graph

Search for Another Location

Airport or City:

Trip Planner

Search our weather history database for the weather conditions in past years. The results will help you decide how hot, cold, wet, or windy it might be!

Date:

Astronomy

Feb. 05, 2013 Rise Set
Actual Time 6:57 AM CST 5:17 PM CST
Civil Twilight 6:29 AM CST 5:45 PM CST
Nautical Twilight 5:56 AM CST 6:17 PM CST
Astronomical Twilight 5:25 AM CST 6:49 PM CST
Moon 2:39 AM CST (2/5) 12:34 PM CST (2/5)
Length of Visible Light 11h 16m
Length of Day
10h 19m
Waning Crescent, 26% of the Moon is Illuminated
Feb 5
Waning Crescent
Feb 10
New
Feb 17
First Quarter
Feb 25
Full
Mar 4
Last Quarter

Hourly Weather History & Observations

Time (CST) Temp. Windchill Dew Point Humidity Pressure Visibility Wind Dir Wind Speed Gust Speed Precip Events Conditions
12:09 AM 28.4 °F 22.2 °F 24.8 °F 86% 29.94 in 8.0 mi NNW 5.8 mph - N/A   Mostly Cloudy
12:53 AM 26.1 °F 21.9 °F 23.0 °F 88% 29.95 in 7.0 mi NNW 3.5 mph - N/A   Scattered Clouds
1:29 AM 24.8 °F 17.9 °F 21.2 °F 86% 29.93 in 6.0 mi North 5.8 mph - N/A   Scattered Clouds
1:38 AM 26.6 °F 21.2 °F 23.0 °F 86% 29.93 in 6.0 mi North 4.6 mph - N/A   Mostly Cloudy
1:53 AM 26.1 °F 20.5 °F 23.0 °F 88% 29.96 in 7.0 mi NNW 4.6 mph - N/A   Scattered Clouds
2:53 AM 21.9 °F 15.7 °F 19.9 °F 92% 29.95 in 5.0 mi NNW 4.6 mph - N/A   Clear
3:30 AM 24.8 °F 19.1 °F 21.2 °F 86% 29.94 in 5.0 mi North 4.6 mph - N/A   Mostly Cloudy
3:53 AM 24.1 °F - 21.9 °F 91% 29.95 in 5.0 mi Calm Calm - N/A   Overcast
4:53 AM 26.1 °F - 23.0 °F 88% 29.95 in 5.0 mi Calm Calm - N/A   Overcast
5:50 AM 26.6 °F 22.6 °F 24.8 °F 93% 29.91 in 6.0 mi SE 3.5 mph - N/A   Overcast
5:53 AM 26.1 °F 21.9 °F 24.1 °F 92% 29.94 in 6.0 mi SE 3.5 mph - N/A   Overcast
6:53 AM 27.0 °F 23.0 °F 24.1 °F 89% 29.95 in 5.0 mi SSE 3.5 mph - N/A   Scattered Clouds
7:53 AM 28.0 °F 21.7 °F 25.0 °F 88% 29.95 in 5.0 mi South 5.8 mph - N/A   Overcast
8:53 AM 28.9 °F 21.1 °F 26.1 °F 89% 29.94 in 4.0 mi South 8.1 mph - N/A   Overcast
9:40 AM 30.2 °F 20.8 °F 26.6 °F 86% 29.90 in 4.0 mi South 11.5 mph - N/A   Scattered Clouds
9:53 AM 30.0 °F 21.7 °F 27.0 °F 88% 29.93 in 5.0 mi SSW 9.2 mph - N/A   Mostly Cloudy
10:53 AM 32.0 °F 22.1 °F 28.0 °F 85% 29.93 in 5.0 mi SSW 13.8 mph - N/A   Overcast
11:53 AM 33.1 °F 22.6 °F 28.9 °F 85% 29.90 in 5.0 mi SW 16.1 mph - N/A   Mostly Cloudy
12:13 PM 35.6 °F 25.2 °F 30.2 °F 81% 29.86 in 4.0 mi SW 18.4 mph 24.2 mph N/A   Haze
12:26 PM 35.6 °F 25.5 °F 30.2 °F 81% 29.85 in 4.0 mi SW 17.3 mph 23.0 mph N/A   Haze
12:34 PM 35.6 °F 25.9 °F 30.2 °F 81% 29.84 in 4.0 mi SW 16.1 mph - N/A   Haze
12:43 PM 37.4 °F 26.9 °F 30.2 °F 75% 29.84 in 5.0 mi SW 20.7 mph - N/A   Haze
12:53 PM 37.0 °F 27.0 °F 30.9 °F 79% 29.86 in 5.0 mi SW 18.4 mph - N/A   Haze
1:08 PM 37.4 °F 28.2 °F 30.2 °F 75% 29.83 in 6.0 mi SW 16.1 mph 26.5 mph N/A   Haze
1:53 PM 37.0 °F 26.7 °F 30.9 °F 79% 29.86 in 6.0 mi SW 19.6 mph 26.5 mph N/A   Haze
2:53 PM 39.0 °F 29.9 °F 32.0 °F 76% 29.88 in 6.0 mi WSW 17.3 mph - N/A   Haze
3:53 PM 39.9 °F 31.8 °F 33.1 °F 77% 29.90 in 7.0 mi West 15.0 mph - N/A   Overcast
4:48 PM 39.2 °F 32.0 °F 33.8 °F 81% 29.90 in 7.0 mi WNW 11.5 mph - N/A   Mostly Cloudy
4:53 PM 39.9 °F 32.1 °F 33.1 °F 77% 29.93 in 7.0 mi WNW 13.8 mph - N/A   Overcast
5:53 PM 36.0 °F 30.3 °F 30.9 °F 82% 29.96 in 8.0 mi WNW 6.9 mph - N/A   Overcast
6:08 PM 35.6 °F 30.7 °F 32.0 °F 87% 29.94 in 7.0 mi WNW 5.8 mph - N/A   Overcast
6:53 PM 37.0 °F 28.9 °F 30.9 °F 79% 29.99 in 9.0 mi WNW 12.7 mph - N/A   Overcast
7:53 PM 36.0 °F 26.7 °F 30.0 °F 79% 30.03 in 9.0 mi NW 15.0 mph - N/A   Overcast
8:53 PM 34.0 °F 23.0 °F 28.0 °F 79% 30.06 in 8.0 mi NNW 18.4 mph 27.6 mph N/A   Overcast
10:53 PM 33.1 °F 28.7 °F 28.0 °F 82% 30.10 in 9.0 mi NW 4.6 mph - N/A   Overcast
11:53 PM 33.1 °F 27.7 °F 28.0 °F 82% 30.11 in 10.0 mi NNW 5.8 mph - N/A   Overcast